Overview Statistics Trail Chart Weather Telemetry Raw packets
 

This is the latest recevied weather packets stored in our database for station/object DG6YGE-6. If no packets are shown the sender has not sent any weather packets the latest 10 day(s).

<< 54 55 56 57 58 >>
Time Temp. Humidity Pressure Rain* Wind** Luminosity Snow
1787823551 22.22° C 72% 1012.7 hPa 0 mm - 522 W/m² -
1787822951 22.22° C 73% 1012.8 hPa 0 mm - 502 W/m² -
1787822352 21.67° C 74% 1012.9 hPa 0 mm - 366 W/m² -
1787821751 21.11° C 75% 1012.9 hPa 0 mm - 435 W/m² -
1787821151 21.11° C 75% 1012.9 hPa 0 mm - 157 W/m² -
1787820551 21.11° C 75% 1013 hPa 0 mm - 451 W/m² -
1787819951 20.56° C 76% 1012.8 hPa 0 mm - 464 W/m² -
1787819351 20.56° C 77% 1013.2 hPa 0 mm - 454 W/m² -
1787818751 20° C 78% 1013.3 hPa 0 mm - 402 W/m² -
1787818151 19.44° C 78% 1013.3 hPa 0 mm - 427 W/m² -
1787817551 19.44° C 79% 1013.3 hPa 0 mm - 399 W/m² -
1787816951 18.89° C 80% 1013.6 hPa 0 mm - 372 W/m² -
1787816351 18.89° C 82% 1013.6 hPa 0 mm - 342 W/m² -
1787815751 18.33° C 83% 1013.6 hPa 0 mm - 322 W/m² -
1787815151 17.78° C 85% 1013.5 hPa 0 mm - 304 W/m² -
1787814551 17.22° C 86% 1013.6 hPa 0 mm - 278 W/m² -
1787813951 16.67° C 87% 1013.6 hPa 0 mm - 260 W/m² -
1787813351 16.11° C 88% 1013.6 hPa 0 mm - 237 W/m² -
1787812751 16.11° C 89% 1013.4 hPa 0 mm - 215 W/m² -
1787812151 15.56° C 89% 1013.5 hPa 0 mm - 173 W/m² -
1787811551 15.56° C 89% 1013.5 hPa 0 mm - 161 W/m² -
1787810951 15° C 90% 1013.6 hPa 0 mm - 146 W/m² -
1787810351 15° C 90% 1013.6 hPa 0 mm - 119 W/m² -
1787809751 15° C 90% 1013.8 hPa 0 mm - 95 W/m² -
1787809151 14.44° C 90% 1013.8 hPa 0 mm - 71 W/m² -

* Rain latest hour (hover to see other rain measurements)
** Current wind speed in m/s (hover to see current wind gust speed)